TimeCDT,TemperatureF,Dew PointF,Humidity,Sea Level PressureIn,VisibilityMPH,Wind Direction,Wind SpeedMPH,Gust SpeedMPH,PrecipitationIn,Events,Conditions,WindDirDegrees,DateUTC
12:55 AM,57.9,46.9,67,29.81,10.0,WNW,9.2,-,N/A,,Clear,300,2012-10-01 05:55:00
1:55 AM,57.9,46.9,67,29.83,10.0,NW,11.5,19.6,N/A,,Clear,310,2012-10-01 06:55:00
2:55 AM,55.9,46.9,72,29.83,10.0,NW,9.2,-,N/A,,Partly Cloudy,310,2012-10-01 07:55:00
3:55 AM,54.0,46.0,75,29.85,10.0,WNW,6.9,-,N/A,,Clear,300,2012-10-01 08:55:00
4:55 AM,53.1,46.0,77,29.86,10.0,WNW,9.2,-,N/A,,Scattered Clouds,290,2012-10-01 09:55:00
5:55 AM,54.0,46.9,77,29.87,10.0,NW,9.2,-,N/A,,Mostly Cloudy,310,2012-10-01 10:55:00
6:55 AM,54.0,46.0,75,29.89,10.0,NW,11.5,-,N/A,,Mostly Cloudy,310,2012-10-01 11:55:00
7:55 AM,51.1,46.0,83,29.92,10.0,NW,8.1,-,N/A,,Clear,310,2012-10-01 12:55:00
8:55 AM,55.0,46.9,74,29.94,10.0,NW,11.5,-,N/A,,Clear,320,2012-10-01 13:55:00
9:55 AM,59.0,46.9,64,29.95,10.0,NNW,11.5,-,N/A,,Clear,340,2012-10-01 14:55:00
10:55 AM,61.0,46.0,58,29.96,10.0,NNW,10.4,-,N/A,,Clear,340,2012-10-01 15:55:00
11:55 AM,63.0,42.1,46,29.97,10.0,NNW,18.4,25.3,N/A,,Scattered Clouds,340,2012-10-01 16:55:00
12:55 PM,64.4,44.6,49,29.96,10.0,NNW,16.1,21.9,N/A,,Scattered Clouds,330,2012-10-01 17:55:00
1:55 PM,64.9,39.0,39,29.95,10.0,NNW,15.0,25.3,N/A,,Partly Cloudy,330,2012-10-01 18:55:00
2:55 PM,66.0,37.9,36,29.95,10.0,NW,16.1,20.7,N/A,,Clear,320,2012-10-01 19:55:00
3:55 PM,64.0,36.0,35,29.95,10.0,NW,17.3,21.9,N/A,,Clear,310,2012-10-01 20:55:00
4:55 PM,64.0,34.0,33,29.96,10.0,NNW,11.5,-,N/A,,Clear,330,2012-10-01 21:55:00
5:55 PM,61.0,33.1,35,29.97,10.0,NNW,9.2,-,N/A,,Clear,330,2012-10-01 22:55:00
6:55 PM,57.0,30.9,37,29.98,10.0,NNW,6.9,-,N/A,,Clear,340,2012-10-01 23:55:00
7:55 PM,48.9,32.0,52,29.99,10.0,Calm,Calm,-,N/A,,Clear,0,2012-10-02 00:55:00
8:55 PM,37.0,30.9,79,30.00,10.0,Calm,Calm,-,N/A,,Clear,0,2012-10-02 01:55:00
9:55 PM,33.1,30.0,89,30.01,10.0,Calm,Calm,-,N/A,,Clear,0,2012-10-02 02:55:00
10:55 PM,30.0,28.0,92,30.00,10.0,Calm,Calm,-,N/A,,Clear,0,2012-10-02 03:55:00
11:55 PM,30.9,28.9,92,29.99,10.0,Calm,Calm,-,N/A,,Clear,0,2012-10-02 04:55:00